Location: Buckeye Ditch
(40.9104°N, 122.9517°W)
Time: 15:23:33
(UTC+00:00)

A-11 Canister half - Pass Details

Date: 25 May 2025
Orbit: 1515 x 1684 km, 47.2° (Epoch: 14 June)

Event Time Altitude Azimuth Distance (km) Brightness Sun altitude
Rises 03:51:32 0° 187° (S) 4,849 11.4 -4.1°
Reaches altitude 10° 03:55:37 10° 174° (S) 3,838 10.7 -4.7°
Maximum altitude 04:02:32 22° 127° (SE) 2,936 9.9 -5.8°
Drops below altitude 10° 04:09:17 10° 81° (E) 3,752 10.6 -6.9°
Sets 04:13:10 0° 68° (ENE) 4,714 11.2 -7.5°
